Wind_Speed
14 15 14 14 15 16 16 15 15 15 15 16 17 19 22 22 20 20 22 22 23 26 26 24 23 20 17 11 9 12 8 2 1 3 4 8 9 9 10 12 15 17 17 18 19 21 22 23 25 27 28 30 32 33 34 35 36 36 36 36 36 37 37 36 36 36 36 37 38 37 36 36 36 36 36 37 37 38 37 37 37 38 38 38 38 38
14 15 14 14 15 16 16 16 16 16 16 16 17 19 22 22 22 22 21 22 26 28 27 26 21 17 14 9 12 13 4 2 2 3 5 9 9 9 11 13 16 17 18 19 19 21 22 24 26 28 30 32 33 35 36 36 38 38 38 38 38 38 38 37 37 37 37 38 38 38 37 37 37 37 37 38 38 38 38 38 38 38 39 38 38 38
15 15 14 14 16 17 17 17 16 16 18 17 18 20 22 23 23 21 20 22 26 28 30 27 21 17 11 8 13 11 4 3 4 4 7 9 9 11 12 15 17 18 18 19 20 21 24 26 29 31 33 34 36 37 38 38 40 40 40 39 39 39 39 39 38 38 39 39 39 38 38 38 38 38 38 38 39 40 39 39 39 39 40 39 39 39
15 16 15 16 17 17 18 17 17 17 18 18 19 20 20 22 22 22 22 23 24 28 30 26 22 18 9 7 13 10 6 5 6 6 9 10 11 12 13 16 17 18 18 19 21 24 27 30 32 35 36 38 39 40 41 41 42 43 42 41 40 40 41 40 39 39 40 40 40 39 39 39 38 38 38 38 39 39 39 39 40 40 41 41 40 39
16 17 16 16 17 18 18 18 17 17 18 19 20 19 21 23 23 23 24 24 25 26 25 22 21 13 6 8 13 10 8 7 7 7 10 11 11 11 13 16 17 18 20 22 25 27 30 33 35 37 39 41 42 43 44 44 45 46 45 44 43 42 42 41 40 40 41 41 41 41 40 40 39 39 38 39 39 39 39 39 40 41 42 42 41 40
17 16 16 17 18 18 19 18 18 18 18 20 20 19 21 23 23 23 24 26 25 20 20 21 14 4 7 12 13 11 10 10 9 7 10 11 11 11 13 15 17 20 22 25 27 30 32 34 36 39 41 43 44 45 46 47 47 47 47 46 46 46 45 44 42 41 42 43 42 42 42 41 41 40 39 40 40 40 40 40 40 41 42 43 43 42
17 16 17 18 18 19 19 18 18 18 18 19 20 20 21 23 23 23 24 25 20 16 20 21 8 6 15 16 11 11 11 11 11 9 10 11 10 11 13 15 18 20 22 25 28 30 33 35 38 40 42 44 45 46 47 47 47 47 47 47 48 48 48 47 45 44 44 44 44 43 43 42 42 41 40 41 41 41 41 40 41 42 43 43 44 43
18 18 18 18 19 20 20 19 18 17 18 20 20 20 22 23 23 24 24 23 22 21 23 19 8 8 15 15 13 15 12 12 12 10 11 11 10 13 15 17 20 22 24 27 30 33 35 37 40 42 43 44 45 47 47 47 47 46 46 46 47 48 48 49 48 47 47 46 45 44 44 43 42 40 40 41 41 41 41 41 41 42 43 44 44 44
20 19 19 19 19 20 19 18 17 17 18 20 21 21 22 24 25 25 23 21 22 18 12 11 7 6 11 15 19 17 13 12 13 12 12 12 13 16 19 21 24 25 27 30 34 37 37 40 42 44 46 46 47 47 47 47 46 45 45 45 46 46 47 48 48 49 49 48 47 46 45 44 43 41 40 41 42 41 41 42 41 42 43 44 45 45
20 20 20 19 20 19 18 17 17 17 19 20 22 22 22 25 26 22 19 19 16 9 6 8 6 3 9 17 18 12 11 11 13 13 13 14 15 20 23 25 27 28 29 31 36 39 40 42 44 46 48 49 49 48 47 47 45 45 45 46 46 45 45 46 47 48 49 49 49 48 47 45 43 42 42 43 43 41 41 42 42 42 42 43 44 44
20 19 19 19 19 18 16 16 16 17 19 21 21 22 24 26 23 17 16 12 6 5 5 7 6 2 7 14 11 7 9 12 13 12 13 14 17 21 25 28 29 30 30 34 38 40 41 44 46 48 50 51 51 49 48 47 46 45 45 46 46 44 44 44 45 46 47 48 49 49 48 47 45 44 43 44 44 42 41 42 43 42 42 43 44 44
17 18 19 20 18 17 15 14 15 17 20 19 19 21 22 19 14 11 9 4 2 4 3 7 8 4 7 13 10 10 14 14 11 9 11 14 16 18 23 29 31 30 32 38 41 42 44 46 48 50 52 53 53 50 49 48 47 47 46 45 45 43 42 43 43 44 46 47 49 49 49 49 47 46 46 45 44 43 42 42 43 43 42 43 43 44
19 20 20 18 16 14 13 13 17 19 18 16 18 19 15 9 7 5 3 2 3 5 6 10 9 8 18 22 15 14 14 10 6 8 10 13 13 14 21 30 32 31 36 42 44 45 47 49 52 54 55 55 54 53 51 50 50 50 48 46 45 43 42 43 43 43 44 45 47 48 49 50 50 49 49 47 46 45 43 43 44 43 42 43 43 43
17 16 15 14 13 11 11 15 18 17 16 17 18 15 8 5 5 4 3 3 4 6 10 15 11 11 19 16 9 12 11 6 5 8 10 13 14 17 25 31 31 32 40 45 46 49 51 52 55 56 56 57 56 55 54 53 53 52 50 48 46 44 44 44 44 44 44 44 44 46 48 49 51 51 51 50 49 48 45 44 45 44 43 43 43 43
10 11 11 10 10 11 15 18 17 17 18 18 15 10 7 6 5 5 3 2 4 7 12 17 11 8 10 11 16 22 17 8 4 7 12 18 20 25 31 32 32 36 44 48 49 51 53 55 57 57 58 59 58 57 55 55 54 53 51 49 47 45 45 45 46 47 46 46 45 46 46 47 49 51 51 51 50 49 47 45 46 45 43 42 43 43
9 10 9 9 12 16 19 17 15 16 15 13 11 10 9 10 9 9 9 10 8 6 9 13 12 16 22 23 22 20 10 7 3 12 20 25 28 32 35 34 34 39 46 50 52 54 56 57 59 59 60 60 59 58 57 56 55 53 51 49 47 45 44 44 46 47 48 49 49 48 48 47 48 49 51 51 51 50 49 48 48 46 44 43 43 44
7 8 10 12 16 19 18 15 15 16 13 12 13 13 13 14 12 12 12 11 8 5 6 9 15 26 28 20 15 10 3 10 7 19 26 29 33 36 36 35 36 42 49 52 55 57 58 60 60 61 61 60 59 58 58 57 55 53 50 49 47 46 44 43 44 45 47 48 50 50 50 49 49 49 50 51 51 52 51 50 49 48 44 43 44 44
12 15 16 16 17 18 16 17 18 18 16 16 16 16 15 11 9 8 6 4 4 5 5 8 16 24 20 14 14 8 5 9 16 24 29 33 37 38 36 35 39 46 51 55 58 59 60 61 61 62 61 60 59 58 58 57 55 52 50 48 47 46 45 44 44 44 45 47 48 49 49 50 49 49 49 50 51 52 53 52 51 49 45 43 44 44
15 15 15 15 16 17 18 19 20 19 18 17 17 17 13 8 6 5 5 4 4 5 4 6 12 20 22 16 11 6 9 17 25 30 35 38 40 38 36 38 43 50 55 59 61 60 61 61 61 61 61 60 59 58 58 57 55 53 50 48 47 46 46 45 45 45 45 46 47 48 49 50 50 49 49 49 49 51 53 53 52 50 45 43 44 44
15 12 12 15 18 19 20 19 18 19 20 19 18 17 14 11 10 8 8 6 3 6 7 4 6 11 15 13 11 12 15 23 31 37 40 40 39 36 37 44 50 56 60 62 61 61 60 60 60 60 60 60 60 59 58 57 55 54 53 51 50 49 48 47 47 47 47 48 48 48 49 50 51 50 48 47 47 49 51 52 52 49 45 43 43 44
16 13 13 18 22 21 20 19 20 22 22 19 19 17 14 13 11 11 14 14 10 7 5 4 4 6 9 15 18 14 16 28 37 40 40 38 36 35 41 51 56 59 62 62 61 61 60 60 60 60 60 61 60 59 57 56 55 55 55 54 53 52 52 50 50 50 50 50 50 50 50 50 50 50 49 47 46 48 49 50 51 48 44 42 43 43
15 15 17 23 24 23 22 22 22 22 20 18 17 16 15 14 12 9 9 13 15 12 8 7 6 10 22 27 18 11 22 36 39 37 38 37 34 39 50 56 59 61 62 62 61 61 60 60 61 61 61 61 60 58 55 55 57 57 57 56 55 54 54 53 53 52 52 52 52 52 51 50 50 49 49 47 45 46 47 48 49 47 42 41 42 42
16 17 21 24 24 23 23 22 19 16 15 14 15 15 15 16 15 11 7 9 11 14 16 12 7 18 29 21 9 18 34 38 36 35 35 35 40 50 57 59 61 62 62 61 61 61 60 60 61 61 61 60 59 57 58 61 62 60 59 58 57 56 55 55 55 54 53 53 53 52 52 52 51 49 48 46 45 44 45 46 47 45 41 40 42 41
14 15 19 22 24 24 22 20 15 13 14 16 17 18 17 17 17 16 17 18 13 14 17 12 7 12 16 11 16 31 38 35 35 34 34 41 52 58 60 62 63 63 62 61 60 60 60 61 61 61 60 59 60 62 65 65 63 60 59 59 59 58 57 56 56 56 56 55 55 54 53 53 53 51 48 46 45 43 43 46 46 43 41 40 40 40
14 15 17 17 17 15 13 12 12 16 21 21 21 21 19 19 19 17 20 21 16 14 14 11 10 12 15 25 34 37 35 36 34 33 41 53 59 61 63 64 63 62 61 60 59 60 62 62 62 61 61 63 64 65 63 61 61 61 62 61 61 62 62 62 63 64 63 62 61 59 57 56 55 53 50 47 46 44 43 46 45 42 41 40 39 38
17 19 20 15 10 8 7 10 15 22 26 27 27 26 25 24 21 18 16 14 12 13 13 16 22 27 31 37 39 37 36 37 34 39 51 60 62 63 63 62 62 62 59 58 59 62 63 63 64 64 66 67 66 65 64 63 63 63 62 63 64 65 65 64 64 65 66 65 65 63 60 58 56 55 51 48 47 46 46 46 45 42 41 39 36 37
19 22 23 20 20 19 19 22 23 25 27 28 27 24 22 22 21 19 16 16 17 19 21 23 28 36 41 41 39 37 36 35 38 49 59 63 64 64 62 62 62 57 52 53 59 63 63 64 65 66 68 68 68 68 67 65 63 60 59 62 62 61 60 58 60 64 65 64 63 62 61 58 56 54 51 47 46 47 47 46 45 43 40 36 34 35
19 23 23 24 26 26 26 26 25 25 25 23 20 18 18 19 18 16 15 15 17 18 21 25 29 35 42 43 37 35 36 39 44 54 62 65 64 64 64 63 57 50 49 55 60 62 62 63 64 64 64 64 66 66 63 62 61 60 61 63 63 60 58 60 67 71 68 64 63 62 60 58 56 53 49 46 44 46 46 45 44 42 38 34 33 34
18 23 24 25 28 28 26 25 24 21 17 16 16 16 13 10 9 9 11 13 16 17 22 31 36 38 42 40 35 35 37 41 47 56 65 66 64 65 64 57 50 50 55 61 62 62 62 62 63 62 59 57 58 59 58 59 59 60 64 68 68 65 65 70 77 78 72 65 62 61 58 57 55 51 46 43 42 43 44 42 41 40 36 32 32 33
18 22 25 25 28 28 27 24 20 15 15 18 16 8 4 3 5 8 11 14 18 22 28 36 40 41 39 34 35 38 37 41 52 62 67 65 64 65 57 47 48 55 60 62 61 60 60 60 60 59 56 53 54 56 56 56 57 59 65 70 71 72 75 78 80 77 70 63 59 57 54 52 51 48 44 42 42 43 43 40 39 37 34 31 30 31
18 21 24 24 27 28 24 20 18 18 21 18 9 3 3 7 10 13 15 18 23 29 33 35 38 42 38 34 38 38 39 48 60 65 66 64 63 56 46 45 53 58 60 59 59 60 60 58 57 55 54 53 53 55 56 56 58 62 66 70 74 76 77 77 75 70 64 59 54 52 51 51 50 47 43 41 41 43 42 39 38 35 33 30 28 29
19 21 22 21 23 25 22 19 20 24 23 11 3 4 7 10 15 17 18 22 27 33 36 35 35 36 37 40 42 38 44 58 62 60 61 60 53 44 42 50 56 56 56 58 60 61 60 58 57 57 58 57 55 54 56 58 61 65 69 72 73 73 72 71 69 64 60 55 50 47 49 51 52 49 45 42 41 42 40 38 37 35 31 27 26 28
18 19 19 17 17 21 22 20 22 24 15 3 2 7 11 13 18 21 22 24 28 33 37 35 33 33 36 40 41 44 56 64 59 54 55 51 44 43 48 53 53 52 56 60 61 61 60 59 60 60 59 56 53 54 58 62 65 67 68 69 69 68 67 66 64 61 57 50 45 45 48 50 52 51 48 45 42 40 38 37 37 34 30 26 26 28
15 15 17 14 13 19 23 23 22 16 5 2 7 14 14 16 21 25 26 27 31 35 35 32 32 34 34 36 43 55 64 62 54 52 50 43 42 49 52 50 50 55 61 64 64 64 62 62 62 60 57 54 56 60 63 65 66 66 65 66 65 64 63 62 61 59 54 48 44 46 48 49 51 52 50 46 42 39 37 36 37 34 29 26 26 28
13 14 15 14 15 20 23 20 13 4 3 9 15 18 16 16 21 27 30 31 35 38 35 33 31 31 32 40 52 59 60 57 53 48 42 39 43 49 50 50 54 60 66 68 67 65 63 63 63 62 59 60 63 65 65 65 65 65 64 64 63 62 61 60 59 57 53 49 48 49 49 50 52 53 50 45 41 38 36 36 38 35 30 26 26 27
13 13 14 16 16 16 15 11 6 8 14 18 17 18 18 19 24 32 36 38 40 37 33 30 28 30 40 51 55 53 54 57 52 40 34 40 46 47 47 52 59 65 68 68 66 64 63 63 63 62 62 64 64 64 65 65 64 64 64 62 61 61 59 58 57 56 53 52 52 52 51 52 54 52 47 42 40 38 35 34 37 37 31 28 27 27
14 15 16 15 12 11 11 12 14 15 14 12 12 13 18 24 28 35 42 46 41 30 24 25 31 43 53 55 51 50 53 56 52 41 38 44 47 46 50 57 63 66 66 64 62 62 62 61 60 61 62 62 62 63 63 63 63 63 63 61 60 59 58 57 56 55 53 53 53 52 51 51 50 47 43 41 39 37 34 32 35 36 34 30 28 26
15 15 14 11 10 11 12 12 12 9 4 5 8 14 22 26 29 38 45 44 33 22 23 33 47 56 55 50 50 53 52 51 52 50 47 48 49 52 58 62 64 64 62 61 61 60 59 59 60 60 61 61 61 61 61 62 62 62 60 60 59 57 58 58 56 54 53 52 51 49 47 46 45 43 41 39 37 35 32 30 31 34 34 31 28 26
16 14 12 10 10 12 11 8 5 4 4 8 14 21 25 28 36 44 39 29 23 26 37 50 55 53 49 47 48 48 45 46 51 53 53 53 55 59 63 64 62 60 59 59 59 59 59 59 60 59 60 60 60 60 61 61 61 60 59 59 58 58 58 58 57 56 55 52 50 48 45 44 42 41 39 37 34 32 31 29 28 31 33 31 29 26
14 13 12 10 10 13 12 9 8 9 11 16 22 26 28 35 43 38 22 21 35 47 51 52 49 45 43 43 43 42 41 43 48 51 53 55 59 62 63 63 61 60 60 58 57 58 59 59 60 60 60 60 60 60 61 60 60 60 60 59 59 58 58 58 58 58 56 54 51 48 46 43 41 38 36 34 33 31 29 27 25 27 30 31 28 26
12 12 11 10 12 15 12 12 14 14 14 18 23 28 36 44 41 26 18 31 50 55 51 46 41 40 40 41 41 42 42 42 45 49 52 57 61 62 60 60 59 58 58 58 59 59 59 58 59 60 59 60 61 61 61 61 61 60 60 60 60 59 59 59 58 58 58 55 51 48 45 42 39 36 33 31 31 29 27 24 23 25 28 29 27 25
11 11 10 11 14 15 13 15 16 12 13 21 28 36 43 42 31 26 33 44 48 47 46 43 38 39 42 42 42 42 43 44 47 51 56 61 62 61 60 59 57 56 55 57 58 58 57 57 58 58 59 60 60 61 61 61 61 61 61 61 60 60 60 60 59 59 58 54 50 46 42 39 36 34 31 29 28 27 24 22 22 24 27 28 26 23
11 10 9 13 16 14 12 13 11 10 20 31 36 41 42 34 28 35 45 47 43 41 40 39 39 41 42 40 40 41 44 47 51 56 61 62 61 60 60 58 57 57 56 56 56 56 57 57 57 59 60 60 61 62 62 62 61 62 62 62 62 62 62 62 61 60 57 52 48 43 39 36 34 32 30 28 27 25 22 20 20 22 25 26 24 22
10 9 10 15 16 12 12 13 12 17 28 35 38 41 38 32 33 40 44 44 43 41 40 42 42 39 37 38 41 44 47 52 57 61 63 61 60 60 58 57 57 57 56 55 55 56 56 57 58 60 61 61 62 62 62 62 63 63 63 64 63 63 62 62 62 60 55 49 44 40 36 33 31 30 29 27 26 23 20 18 19 21 24 25 23 20
9 9 12 16 15 15 19 21 20 24 32 37 39 38 35 35 39 42 40 39 40 42 43 42 39 37 38 41 44 48 52 57 61 62 61 60 60 59 57 55 56 56 56 56 56 56 57 59 60 61 61 62 62 63 62 63 63 63 63 63 63 63 62 61 61 59 53 46 41 38 35 32 30 29 28 26 24 21 18 16 18 21 23 23 21 18
10 10 13 18 21 23 25 24 25 32 39 41 38 35 37 41 43 42 39 37 38 40 38 36 36 40 41 43 48 53 56 59 61 60 59 59 58 56 55 54 54 55 56 56 56 57 58 59 60 61 62 62 62 63 62 62 63 63 63 63 63 62 61 60 60 58 52 45 39 36 33 31 29 28 27 25 22 19 16 16 18 21 22 22 19 17
13 14 18 23 27 31 31 31 36 41 42 40 37 37 40 43 42 42 43 40 38 36 35 36 39 42 44 47 52 56 58 59 59 58 57 57 55 54 54 54 54 55 56 57 58 58 59 60 61 62 62 62 63 63 63 62 63 63 63 62 62 61 60 59 59 56 51 45 39 35 32 30 28 27 26 24 20 17 15 16 18 20 21 20 18 16
17 20 25 30 33 36 38 39 42 42 38 36 37 39 42 43 44 45 44 38 34 35 38 41 44 46 49 52 54 56 57 56 55 55 55 54 53 53 54 54 55 55 56 57 59 59 60 60 61 62 63 63 63 63 63 63 63 63 63 62 61 61 61 60 58 55 51 45 39 35 32 29 27 26 24 22 19 16 15 15 18 20 20 19 17 15
23 27 32 37 40 41 42 42 43 42 40 39 39 41 43 45 46 47 43 39 38 42 46 48 49 52 55 55 55 55 54 52 52 53 53 52 52 53 54 54 54 55 56 57 58 59 60 61 61 62 63 63 63 64 64 65 65 64 63 63 62 61 61 60 59 55 51 45 40 35 31 28 26 25 23 21 18 15 15 15 18 20 20 18 16 14
28 34 38 41 43 43 42 40 38 40 43 44 43 44 45 46 48 49 47 46 48 50 52 53 53 53 54 54 53 52 51 50 51 51 51 52 53 53 53 53 54 55 56 57 58 59 60 61 61 62 63 63 64 64 65 65 65 64 64 64 62 61 60 60 58 55 50 45 40 36 32 28 25 23 22 19 16 15 15 16 18 19 19 18 15 14
34 38 40 40 40 39 37 34 32 35 41 43 43 44 46 47 50 51 51 51 52 52 52 54 54 51 49 48 47 47 48 49 49 49 50 51 52 52 54 55 55 56 57 57 58 59 59 60 60 61 62 63 64 64 64 65 65 65 64 63 62 60 58 58 57 54 50 45 41 36 33 29 25 22 20 17 15 14 15 17 18 19 19 17 15 14
Wind_Direction
325 326 324 324 326 326 325 324 321 317 318 318 318 323 328 328 328 326 323 323 323 322 323 324 320 326 334 321 312 323 317 297 295 262 290 329 341 342 345 349 348 348 347 345 343 341 342 342 340 340 338 337 336 332 329 325 322 320 318 316 316 314 313 313 312 311 310 310 309 310 311 311 311 313 313 313 314 314 314 315 315 314 312 309 306 304
318 319 318 319 322 323 322 320 318 316 317 318 316 321 328 328 327 327 324 322 322 320 320 321 318 324 329 310 316 324 303 251 288 278 318 333 332 329 333 337 341 344 345 346 345 344 344 344 343 341 340 338 337 334 330 327 323 320 318 316 314 312 312 312 312 311 310 309 309 309 310 310 310 311 312 312 312 312 313 315 315 314 312 309 306 303
313 314 315 316 319 321 320 319 317 315 316 318 316 320 328 328 326 324 321 321 321 318 318 317 316 323 316 297 318 317 266 265 273 288 330 336 327 322 327 333 337 340 343 346 346 345 344 342 341 340 338 336 335 333 330 327 324 321 318 315 312 310 309 310 310 310 309 308 308 309 309 310 310 311 311 311 311 311 312 314 314 313 311 309 306 303
308 310 311 313 318 319 318 317 315 313 314 315 315 319 325 327 325 320 318 320 320 316 316 314 317 322 299 289 319 306 258 264 264 297 333 337 331 327 332 335 336 337 340 342 343 343 342 340 338 337 336 334 333 332 329 325 323 320 317 313 310 308 307 307 307 308 307 307 307 308 309 309 310 310 310 310 309 309 311 312 312 311 310 309 307 303
302 305 306 309 315 317 317 316 313 310 311 312 312 315 322 326 324 318 315 318 319 316 314 316 322 318 271 295 317 294 260 262 262 299 331 334 332 332 335 337 338 339 339 341 341 340 339 338 336 335 334 333 331 330 327 324 322 320 316 312 309 307 306 305 305 305 305 305 306 307 308 308 309 309 309 309 308 308 309 310 310 310 309 308 307 304
299 302 303 307 312 315 315 314 311 306 307 310 311 313 320 324 322 317 316 318 321 315 311 320 329 301 278 302 307 287 266 257 263 300 328 330 331 332 334 338 341 343 343 342 341 339 338 335 334 333 332 331 329 328 326 324 321 318 315 312 309 306 305 304 303 303 302 303 304 305 305 306 306 307 308 307 308 308 308 308 308 308 307 307 306 304
298 300 303 304 307 313 314 310 307 304 305 310 310 311 317 322 321 318 316 316 315 303 302 311 307 268 296 302 298 291 273 255 265 297 323 325 327 331 333 336 338 340 341 339 338 336 335 333 332 332 331 329 327 326 325 323 319 317 314 311 309 306 305 304 302 301 301 301 302 302 302 303 303 304 305 305 306 307 308 308 307 306 306 305 304 303
297 299 301 300 303 310 310 307 305 302 304 308 309 310 315 320 320 316 313 308 303 301 302 303 284 267 290 295 302 299 274 257 267 290 318 320 321 327 328 328 329 329 332 334 335 333 332 333 332 331 331 329 327 326 324 323 320 317 313 310 308 306 304 303 301 301 300 299 299 299 299 300 301 300 300 301 302 305 306 306 306 305 304 303 302 302
295 295 296 297 301 306 307 305 304 302 304 306 308 309 313 318 319 315 309 301 301 305 301 292 285 267 272 290 305 293 260 259 273 285 310 317 321 325 323 322 322 321 325 330 332 331 331 331 330 329 330 329 328 327 325 324 321 318 315 311 309 307 305 303 301 300 299 297 296 296 297 297 298 298 297 297 299 302 303 304 305 304 304 302 301 300
290 291 293 294 298 303 304 304 303 303 303 306 308 307 311 317 318 313 303 298 299 295 271 267 273 267 277 294 302 278 248 266 279 284 303 316 322 323 320 318 317 318 322 326 328 329 329 329 329 329 329 329 329 329 327 325 322 319 316 313 311 310 307 304 302 300 298 296 295 295 295 295 295 295 295 296 297 299 300 301 302 302 301 301 300 299
287 288 289 292 297 301 302 303 305 306 306 307 307 307 314 318 319 311 298 298 293 265 254 253 257 266 291 298 294 256 264 280 277 282 302 318 324 324 320 315 316 319 323 325 326 327 328 328 328 328 328 330 330 329 328 326 323 320 317 314 312 312 309 306 303 300 298 296 295 295 295 294 293 292 292 293 295 297 298 298 299 299 299 299 299 299
286 287 289 293 296 298 301 304 308 310 309 309 307 312 320 320 318 306 286 277 249 267 267 267 283 276 265 288 292 281 288 284 275 293 315 327 328 321 315 314 317 322 326 327 327 326 327 327 327 328 329 330 330 330 328 326 324 321 318 315 312 312 310 307 305 303 300 297 296 295 293 293 292 289 288 290 292 294 295 296 297 297 298 298 298 298
289 289 289 290 293 297 302 308 313 314 312 311 309 316 321 315 313 295 250 241 257 266 278 285 296 271 270 287 297 293 288 273 285 327 331 334 329 307 305 311 317 323 327 328 328 328 328 328 328 329 330 330 330 330 329 327 325 322 320 316 312 311 309 307 306 304 301 299 297 294 292 291 290 288 287 288 288 290 292 293 294 296 297 297 298 298
293 291 286 287 292 297 304 313 315 312 311 309 306 309 314 313 314 291 271 281 261 266 283 289 295 282 283 297 311 309 300 277 320 345 333 330 322 304 306 312 317 323 328 329 329 329 329 328 329 329 330 330 330 329 329 327 326 323 321 318 314 311 308 306 305 304 302 300 298 296 294 292 290 289 289 288 288 288 288 290 291 293 295 297 298 298
283 287 288 290 295 301 308 314 313 309 309 306 299 295 292 288 279 279 295 285 289 302 290 287 287 265 280 304 309 310 303 275 312 338 326 325 318 311 314 316 319 324 328 329 328 328 328 328 329 329 329 329 329 329 328 327 326 323 322 319 316 313 310 306 304 302 302 301 300 298 296 294 291 289 289 289 288 287 286 286 287 290 293 296 297 297
277 277 286 292 299 306 308 310 312 313 311 303 296 286 282 283 265 260 274 274 285 308 281 270 264 268 288 303 310 316 293 218 265 326 325 323 317 316 319 320 322 325 327 328 327 327 328 328 328 328 328 328 328 328 327 327 326 324 323 321 319 316 312 309 305 303 301 301 300 299 298 297 293 290 289 288 288 286 284 283 284 287 290 294 296 296
278 273 286 296 301 304 307 308 310 313 306 294 292 285 286 292 272 259 273 274 268 278 261 247 265 286 297 306 319 334 216 194 263 312 318 316 314 318 320 319 321 324 326 326 326 327 328 328 328 328 328 327 327 327 327 327 326 325 324 322 320 318 315 312 308 305 302 301 300 300 300 299 297 294 291 288 287 286 283 281 282 284 286 290 294 295
280 285 291 298 300 302 306 308 309 311 304 291 286 288 295 296 272 256 268 275 254 258 249 231 264 287 293 297 311 313 226 238 283 304 312 313 316 320 319 318 321 323 324 325 327 328 328 327 327 326 326 326 327 327 327 327 326 326 325 323 321 319 317 314 311 308 305 303 302 302 302 301 299 297 294 291 288 286 284 282 282 282 283 287 291 293
288 293 295 296 298 302 305 306 308 311 307 297 289 293 296 282 261 246 248 288 282 267 273 221 243 276 284 288 303 284 267 296 310 315 318 319 321 322 319 318 320 322 325 327 328 329 328 327 326 326 326 326 327 327 327 328 327 326 324 322 320 318 316 315 313 311 308 306 304 303 303 303 302 300 297 294 289 286 285 283 281 280 280 283 288 291
290 291 291 294 297 301 303 304 306 307 306 301 295 295 292 274 265 250 244 263 268 279 295 237 218 275 283 290 307 296 299 318 324 323 322 323 324 322 319 320 322 325 327 329 329 328 327 326 326 326 326 326 327 327 328 329 328 325 322 320 318 317 316 316 314 313 312 310 308 306 304 302 301 301 299 296 292 288 286 284 281 279 278 280 285 289
290 281 279 292 298 299 300 302 303 302 301 297 293 294 293 280 269 264 260 255 254 274 298 281 264 259 270 301 311 306 319 328 326 324 323 324 323 320 320 323 325 327 328 328 327 326 326 325 325 326 326 327 327 328 329 330 327 324 321 319 317 317 316 316 315 314 314 313 312 311 307 303 300 298 297 296 293 290 288 285 282 279 275 277 282 287
289 280 278 287 294 296 298 302 302 300 298 293 292 294 295 286 270 268 270 255 249 251 260 284 293 274 288 305 312 316 328 327 324 323 322 322 321 319 322 325 327 328 327 326 326 324 324 325 325 326 326 327 327 328 329 329 326 323 319 317 316 316 316 316 315 314 313 312 312 311 310 306 301 297 293 292 291 289 288 287 283 278 273 274 279 285
288 284 280 285 293 297 299 302 301 298 295 294 296 299 301 292 275 260 266 268 253 249 261 272 271 282 295 306 317 325 327 324 322 323 321 321 323 324 325 326 327 327 326 325 325 324 325 326 326 327 326 327 328 327 327 326 324 322 319 316 314 314 314 315 314 313 313 312 310 309 309 307 304 298 291 287 287 287 286 286 283 276 271 272 276 283
291 286 283 289 297 300 302 304 301 296 299 300 301 304 301 294 288 274 270 276 272 258 266 272 259 280 298 306 315 324 326 322 321 322 323 324 325 326 326 326 326 325 325 326 325 325 326 327 327 327 327 328 327 326 325 325 324 323 320 318 316 315 316 316 316 315 314 314 312 310 309 307 305 301 293 285 283 283 283 284 281 275 269 270 274 282
291 284 285 293 303 305 305 309 308 307 308 307 306 308 305 299 297 288 278 278 275 264 263 261 260 273 291 303 317 329 327 319 320 322 326 328 327 326 325 326 326 326 326 326 325 326 327 328 328 328 327 326 325 324 325 325 324 322 320 319 318 316 315 315 315 316 315 314 312 310 309 307 304 302 297 287 280 280 280 280 279 273 268 268 273 281
288 284 283 282 284 286 292 302 305 305 306 306 307 308 308 305 301 295 287 274 266 272 260 249 268 288 300 311 326 333 324 318 321 325 328 329 327 325 326 326 326 327 327 328 327 328 329 329 329 327 326 325 325 325 325 325 324 322 320 320 318 317 316 315 316 317 317 316 314 310 307 305 303 301 298 290 282 278 277 277 276 271 266 267 273 280
288 287 287 282 276 277 287 295 298 298 298 299 303 306 306 304 300 297 286 268 274 286 275 270 288 303 312 324 331 327 320 319 322 326 329 328 325 325 325 326 327 329 330 329 328 329 330 329 328 327 326 327 326 326 326 327 327 325 323 322 320 319 319 318 319 321 319 317 315 312 308 304 301 298 296 292 284 279 277 274 272 268 264 266 272 278
288 289 293 292 289 290 296 300 301 300 297 297 303 307 302 296 294 292 283 282 298 293 281 296 313 312 316 327 328 321 319 320 322 327 328 325 323 324 325 327 330 330 328 327 328 328 327 327 326 326 326 326 326 327 329 330 328 325 324 323 321 321 320 319 320 322 321 318 317 315 311 307 303 298 294 290 285 281 279 274 269 266 263 264 271 277
290 292 297 300 300 302 305 308 309 305 301 306 311 306 298 296 299 293 286 303 314 294 292 315 322 315 318 326 322 317 320 322 323 325 323 321 322 324 327 331 331 328 326 326 326 326 326 326 325 325 325 325 326 327 329 329 327 324 323 322 321 321 320 319 321 323 323 321 318 315 312 309 305 300 293 289 285 283 281 274 266 264 262 264 270 277
293 293 299 303 304 307 311 316 318 315 316 318 313 298 297 338 335 309 302 315 318 310 316 324 321 318 323 324 315 314 318 321 321 320 319 320 324 328 331 331 327 325 325 325 326 325 325 324 323 324 324 324 325 327 328 328 326 323 322 320 319 320 320 321 322 323 323 320 317 315 315 314 313 306 298 291 286 285 282 272 263 261 260 263 270 277
294 292 300 305 305 309 317 322 323 322 322 318 302 258 301 328 332 327 322 325 325 324 327 326 319 318 320 314 307 309 315 318 319 318 319 323 328 332 332 326 323 324 325 326 326 325 324 323 323 324 324 325 325 325 325 325 322 320 319 318 319 320 321 322 323 322 321 318 317 318 318 320 321 317 308 299 292 289 283 269 259 258 258 263 271 277
297 295 301 307 305 307 317 322 322 322 319 311 265 283 305 322 334 334 330 330 333 333 330 325 319 316 312 306 304 306 312 317 320 321 323 328 333 333 326 322 323 325 326 326 326 325 324 324 324 323 323 324 323 323 322 321 319 319 319 320 321 322 323 323 323 322 320 318 319 318 315 316 321 321 316 308 300 295 286 268 257 256 257 263 272 275
303 300 304 308 302 303 314 320 321 319 313 271 226 288 297 316 328 328 324 327 335 335 327 319 312 306 303 304 307 308 311 316 322 325 328 332 334 327 322 324 326 325 325 325 325 325 325 324 323 324 323 321 319 320 321 320 320 321 321 321 323 324 324 324 323 322 321 319 317 315 312 313 318 320 319 313 306 300 289 269 258 257 258 264 270 273
311 307 308 306 293 298 312 320 320 313 282 220 285 281 289 313 325 326 324 325 331 330 321 308 300 297 297 304 309 311 314 319 323 327 331 333 329 324 325 326 325 324 325 326 326 326 325 325 325 325 324 321 320 321 322 322 322 322 321 322 324 324 324 324 323 323 323 320 314 312 313 313 316 318 318 314 308 304 293 273 259 258 259 262 268 273
319 315 312 306 295 299 313 328 332 304 278 310 293 275 280 301 312 316 317 320 327 325 313 300 294 292 295 304 311 315 318 321 324 329 334 331 326 325 326 324 323 325 326 326 326 326 326 326 326 325 324 323 323 324 323 323 323 322 322 323 324 324 324 323 322 322 322 318 315 314 315 314 315 317 316 312 307 304 297 279 264 260 260 261 266 272
327 324 316 311 304 302 313 329 326 299 305 303 279 262 276 296 310 318 318 321 325 320 305 292 286 291 303 312 317 320 321 323 327 332 332 326 325 325 324 323 325 326 326 326 326 326 326 326 326 325 325 325 325 325 324 324 323 322 322 323 323 324 324 323 322 321 319 317 316 317 315 314 315 315 314 310 306 304 299 285 269 264 264 262 263 269
326 324 319 315 308 302 305 306 304 306 306 288 263 277 304 315 324 327 324 322 322 313 293 287 295 306 316 321 322 322 323 325 328 330 327 325 326 325 322 323 325 325 325 325 325 325 326 327 327 328 328 328 327 327 325 325 324 323 323 324 323 323 324 324 324 323 321 319 318 317 315 314 314 314 311 308 306 304 301 288 273 269 269 264 261 265
324 324 322 315 304 304 309 309 310 313 292 238 257 295 311 316 321 324 322 319 316 305 296 304 313 319 323 324 323 325 329 329 326 325 325 325 325 324 324 325 324 324 325 325 325 327 329 330 331 330 330 329 328 327 326 326 325 325 325 324 324 324 324 324 325 326 324 323 321 318 316 315 313 312 310 307 305 304 301 291 276 271 270 264 259 262
325 326 325 318 309 312 315 309 299 298 285 274 284 297 306 312 319 322 320 313 306 306 311 316 321 323 324 324 326 329 332 327 323 322 323 323 323 324 324 324 324 325 325 326 327 329 331 331 331 330 329 329 328 327 327 327 326 326 326 326 325 325 324 325 326 326 326 325 323 320 317 314 312 310 308 307 305 303 299 292 280 272 268 263 258 260
329 329 329 329 325 323 318 304 299 303 297 292 297 304 311 316 320 323 319 306 310 314 317 322 324 324 324 326 328 329 327 322 318 317 317 319 320 322 323 324 324 325 326 329 331 331 331 331 330 329 330 329 329 328 328 329 329 329 328 328 327 326 325 325 325 325 325 325 323 320 317 314 311 309 307 305 305 303 297 290 281 272 266 261 257 258
329 330 330 331 330 328 323 311 309 309 299 297 304 310 314 318 323 324 312 309 313 316 321 325 325 324 325 327 326 323 318 314 312 312 313 316 318 322 324 324 324 326 329 331 331 330 330 330 330 330 330 330 330 330 331 331 332 331 331 329 328 327 326 326 325 324 324 324 323 320 317 314 311 308 306 304 304 301 295 287 278 270 264 258 255 256
334 336 337 339 336 334 327 316 314 314 306 306 309 313 317 323 327 318 310 312 315 319 325 327 325 326 327 326 321 315 310 308 309 310 312 315 319 322 324 324 326 329 331 331 330 329 329 331 331 331 331 331 332 332 332 332 332 332 332 331 330 329 328 327 326 324 323 323 322 320 317 315 311 307 305 304 302 299 292 283 273 266 260 256 253 254
339 345 350 347 341 336 329 325 327 319 308 308 313 318 322 326 323 315 315 319 322 324 326 327 326 326 324 319 313 309 307 308 310 311 313 317 321 323 325 326 329 330 330 330 329 329 330 331 331 331 332 332 332 332 332 332 332 333 333 332 331 331 330 329 328 327 325 324 322 319 317 314 309 305 303 303 301 296 289 279 269 263 257 252 250 252
342 353 351 346 342 331 319 321 318 304 302 310 319 322 322 323 322 321 324 326 325 325 326 327 326 322 315 310 307 307 307 308 310 312 315 319 323 324 326 328 329 329 329 329 329 330 331 331 331 332 332 332 332 332 332 332 333 333 332 332 332 332 332 332 331 330 329 326 323 320 317 313 309 305 303 302 300 293 284 273 265 259 253 249 248 250
345 354 346 337 331 320 317 318 314 305 306 315 322 322 322 325 326 327 328 326 323 323 325 325 320 313 309 308 306 306 307 308 311 314 318 321 324 325 327 328 329 329 329 330 330 331 332 331 332 332 331 332 332 332 333 333 333 332 332 332 333 333 332 333 333 332 331 328 325 322 318 313 309 305 304 304 300 291 279 265 257 252 248 246 246 247
343 342 335 327 323 322 321 319 314 311 314 321 326 327 328 329 330 330 329 325 321 322 322 317 310 307 307 306 305 305 307 310 313 317 320 322 324 325 326 328 329 329 330 330 331 331 331 331 331 331 331 332 332 332 333 333 332 332 332 332 332 332 332 333 333 334 333 330 327 324 319 315 312 308 306 306 300 287 272 259 251 247 244 244 243 244
342 334 329 326 324 324 324 322 320 320 325 330 333 332 331 330 330 330 329 327 324 320 314 308 306 306 305 304 306 308 311 314 317 319 321 323 324 326 328 329 330 330 331 331 332 331 331 331 331 331 332 332 332 333 333 333 332 333 333 333 332 332 332 332 333 335 335 332 328 326 322 318 315 312 310 307 298 282 266 254 247 243 241 241 240 240
342 334 329 327 324 325 328 327 326 327 331 334 334 333 332 332 331 330 331 329 322 314 308 307 308 308 308 310 312 313 315 318 320 321 322 324 326 328 330 331 331 331 331 332 332 331 332 332 332 332 333 333 333 334 333 333 333 333 333 333 333 333 332 333 334 335 336 333 330 327 324 320 317 314 311 306 295 277 260 248 243 240 238 238 237 236
337 332 331 329 329 330 331 331 330 330 331 334 335 334 333 333 331 331 332 329 322 318 317 316 314 312 312 314 315 317 319 322 322 322 324 328 330 330 331 331 331 331 331 332 332 332 333 334 334 333 333 334 334 334 334 334 334 334 334 334 334 334 333 333 333 335 336 334 331 327 324 320 317 314 310 304 291 273 256 244 239 237 236 235 233 232
335 335 336 334 332 331 332 333 332 328 328 332 335 334 334 334 332 331 331 328 325 325 324 321 319 317 316 316 318 320 322 323 324 325 328 330 332 332 332 331 331 331 331 332 333 333 335 335 334 334 334 335 335 335 335 334 334 334 335 335 335 334 333 333 333 334 335 334 332 328 323 320 316 312 308 300 285 267 251 241 236 235 235 233 229 230
339 339 337 334 331 329 329 330 327 322 324 330 333 333 334 333 332 331 331 329 327 325 323 321 320 321 322 322 323 324 323 324 326 328 330 331 333 333 332 332 332 332 332 333 333 334 335 335 334 335 335 335 335 335 335 334 335 335 336 335 335 335 334 333 332 333 334 333 332 328 323 318 314 310 305 294 277 260 247 239 235 234 234 230 226 228
Height
3169 3168 3167 3165 3164 3162 3161 3160 3159 3158 3157 3156 3155 3153 3152 3150 3148 3146 3144 3141 3139 3137 3135 3134 3131 3129 3128 3126 3125 3124 3123 3122 3122 3121 3121 3120 3119 3118 3117 3115 3114 3112 3111 3109 3107 3105 3103 3101 3099 3096 3094 3091 3089 3086 3083 3080 3077 3074 3071 3068 3064 3061 3058 3055 3052 3049 3046 3043 3040 3037 3035 3032 3029 3026 3023 3020 3017 3013 3010 3007 3004 3002 3000 2997 2995 2992
3168 3167 3165 3164 3163 3161 3160 3159 3157 3156 3155 3154 3153 3152 3150 3148 3146 3145 3142 3140 3137 3135 3133 3131 3130 3128 3126 3124 3123 3122 3121 3121 3120 3120 3119 3118 3117 3116 3115 3113 3112 3110 3108 3107 3105 3103 3101 3099 3096 3093 3091 3088 3085 3083 3079 3076 3073 3070 3067 3064 3060 3057 3054 3051 3048 3045 3042 3039 3036 3033 3030 3028 3025 3022 3019 3016 3012 3009 3006 3003 3000 2998 2995 2993 2991 2988
3167 3165 3164 3163 3161 3160 3158 3157 3156 3155 3153 3152 3151 3150 3148 3146 3144 3143 3141 3139 3136 3132 3129 3128 3127 3126 3125 3123 3122 3121 3120 3119 3118 3118 3117 3116 3115 3114 3112 3111 3109 3108 3106 3104 3102 3100 3098 3096 3093 3091 3088 3085 3082 3079 3076 3073 3070 3066 3063 3060 3057 3053 3050 3047 3044 3040 3037 3034 3032 3029 3026 3023 3020 3018 3015 3012 3009 3005 3002 2999 2996 2994 2991 2989 2987 2984
3166 3164 3163 3161 3160 3158 3157 3156 3154 3153 3152 3151 3149 3148 3147 3145 3143 3141 3139 3138 3135 3131 3127 3125 3124 3124 3122 3122 3121 3119 3118 3118 3117 3116 3115 3114 3113 3111 3109 3108 3107 3105 3104 3102 3100 3097 3095 3092 3090 3087 3085 3082 3079 3076 3072 3069 3065 3062 3059 3056 3052 3049 3045 3042 3039 3036 3033 3029 3027 3024 3022 3019 3016 3013 3011 3008 3005 3001 2998 2995 2992 2989 2987 2984 2982 2980
3164 3163 3161 3160 3158 3157 3155 3154 3153 3152 3151 3149 3148 3147 3145 3144 3142 3139 3137 3135 3133 3130 3127 3124 3122 3121 3120 3120 3119 3118 3117 3116 3115 3114 3113 3112 3110 3109 3107 3106 3104 3102 3101 3099 3097 3094 3092 3089 3087 3084 3081 3078 3075 3071 3068 3065 3061 3057 3054 3051 3047 3044 3040 3038 3035 3032 3028 3025 3022 3019 3017 3014 3012 3009 3006 3003 3000 2997 2994 2991 2988 2985 2982 2980 2978 2976
3163 3161 3160 3158 3157 3155 3154 3153 3151 3150 3149 3148 3146 3145 3144 3142 3140 3138 3135 3133 3131 3128 3126 3125 3123 3119 3118 3118 3117 3116 3115 3114 3113 3112 3111 3110 3108 3107 3105 3103 3102 3100 3098 3096 3093 3091 3089 3086 3084 3081 3078 3074 3071 3068 3064 3060 3057 3053 3049 3046 3042 3039 3036 3033 3030 3027 3023 3020 3017 3015 3012 3009 3007 3004 3002 2999 2995 2992 2989 2986 2983 2980 2978 2975 2973 2971
3161 3159 3158 3157 3155 3154 3152 3151 3150 3149 3147 3146 3145 3143 3142 3140 3138 3136 3134 3132 3130 3127 3125 3125 3125 3120 3117 3116 3116 3114 3113 3112 3111 3110 3109 3108 3106 3105 3103 3101 3099 3097 3095 3093 3091 3089 3086 3083 3080 3078 3075 3071 3067 3063 3060 3056 3052 3048 3045 3041 3038 3034 3031 3028 3025 3022 3018 3015 3012 3010 3007 3004 3002 2999 2996 2993 2990 2987 2984 2981 2978 2975 2972 2970 2968 2965
3159 3158 3156 3155 3153 3152 3151 3149 3148 3147 3146 3144 3143 3142 3140 3138 3137 3135 3133 3131 3129 3126 3123 3122 3123 3121 3116 3114 3114 3112 3111 3110 3109 3109 3107 3106 3104 3103 3101 3099 3097 3095 3093 3091 3089 3086 3083 3080 3077 3074 3071 3068 3063 3059 3055 3051 3047 3044 3040 3037 3033 3030 3027 3023 3020 3017 3014 3010 3007 3004 3001 2999 2996 2994 2991 2987 2985 2982 2979 2976 2973 2970 2967 2965 2963 2960
3157 3156 3154 3153 3152 3150 3149 3148 3146 3145 3144 3142 3141 3140 3138 3136 3135 3132 3131 3129 3127 3125 3123 3120 3121 3120 3114 3112 3112 3110 3109 3109 3107 3107 3105 3104 3103 3100 3098 3096 3094 3092 3090 3088 3085 3082 3080 3077 3074 3070 3067 3064 3059 3055 3050 3046 3042 3038 3035 3031 3028 3025 3022 3018 3015 3012 3008 3005 3001 2998 2995 2993 2990 2988 2985 2982 2979 2976 2973 2971 2968 2965 2963 2960 2957 2955
3155 3154 3152 3151 3150 3148 3147 3146 3145 3144 3142 3140 3139 3137 3136 3134 3132 3130 3128 3126 3126 3124 3122 3119 3119 3119 3113 3109 3109 3108 3108 3108 3106 3105 3104 3103 3101 3098 3096 3094 3091 3089 3088 3085 3082 3079 3076 3073 3070 3066 3062 3059 3055 3050 3046 3041 3037 3033 3029 3026 3022 3020 3016 3012 3009 3006 3003 3000 2996 2992 2990 2987 2984 2981 2978 2975 2973 2970 2968 2965 2963 2960 2958 2955 2952 2950
3153 3152 3150 3149 3148 3146 3145 3144 3143 3142 3141 3139 3137 3135 3134 3131 3129 3128 3126 3125 3125 3121 3119 3117 3118 3119 3114 3107 3106 3107 3106 3106 3105 3104 3103 3101 3100 3097 3093 3090 3088 3087 3085 3082 3079 3076 3073 3069 3066 3062 3058 3054 3050 3045 3041 3036 3032 3028 3024 3020 3017 3014 3010 3006 3003 3000 2997 2994 2990 2987 2984 2981 2978 2975 2971 2969 2966 2964 2962 2959 2957 2955 2952 2950 2947 2945
3151 3150 3148 3147 3146 3145 3144 3143 3142 3141 3139 3138 3136 3134 3132 3129 3127 3126 3124 3125 3123 3118 3117 3117 3116 3119 3114 3106 3104 3105 3104 3104 3103 3102 3101 3100 3098 3095 3091 3087 3085 3084 3082 3078 3075 3071 3068 3065 3061 3058 3053 3049 3044 3040 3036 3031 3027 3023 3019 3015 3011 3009 3005 3001 2997 2994 2991 2987 2984 2981 2978 2975 2972 2968 2965 2962 2959 2957 2955 2953 2951 2949 2947 2944 2942 2939
3148 3148 3146 3145 3144 3143 3143 3141 3140 3139 3138 3137 3135 3134 3133 3129 3126 3125 3122 3122 3120 3117 3116 3116 3116 3116 3109 3103 3103 3103 3102 3102 3101 3100 3099 3098 3096 3093 3089 3085 3083 3082 3078 3074 3070 3067 3063 3059 3055 3051 3047 3043 3038 3034 3030 3026 3022 3018 3014 3010 3006 3003 3000 2995 2992 2988 2984 2981 2978 2975 2971 2968 2965 2962 2958 2956 2953 2951 2949 2947 2945 2943 2940 2938 2936 2933
3146 3145 3144 3144 3143 3142 3142 3140 3139 3137 3136 3136 3134 3134 3133 3131 3129 3125 3121 3120 3118 3116 3115 3115 3116 3112 3104 3101 3101 3101 3101 3100 3099 3099 3097 3095 3093 3090 3086 3083 3081 3078 3074 3070 3066 3062 3058 3054 3050 3045 3041 3037 3033 3029 3025 3021 3017 3012 3008 3004 3000 2997 2994 2990 2986 2982 2979 2975 2972 2968 2965 2962 2958 2955 2952 2949 2947 2945 2943 2941 2938 2936 2934 2932 2929 2927
3144 3143 3142 3142 3141 3141 3140 3139 3138 3136 3135 3134 3133 3133 3132 3132 3132 3126 3121 3119 3117 3115 3115 3115 3114 3107 3100 3100 3100 3099 3099 3099 3098 3097 3094 3092 3089 3086 3082 3080 3077 3073 3069 3065 3061 3058 3054 3050 3045 3041 3037 3033 3028 3024 3020 3016 3012 3007 3003 2999 2995 2991 2988 2984 2980 2976 2973 2969 2965 2962 2958 2955 2952 2948 2945 2942 2940 2938 2936 2934 2931 2930 2928 2926 2923 2920
3143 3141 3141 3141 3140 3140 3139 3138 3137 3135 3133 3131 3131 3131 3130 3130 3130 3126 3121 3119 3118 3117 3114 3111 3107 3101 3098 3099 3098 3096 3095 3096 3096 3094 3091 3088 3084 3081 3079 3076 3073 3069 3065 3061 3057 3053 3049 3045 3040 3036 3032 3028 3024 3019 3015 3011 3007 3002 2998 2993 2989 2986 2982 2978 2974 2970 2966 2963 2959 2955 2952 2949 2945 2941 2938 2935 2933 2931 2929 2926 2924 2923 2922 2920 2917 2914
3142 3140 3140 3140 3139 3138 3137 3136 3135 3134 3132 3130 3129 3128 3127 3127 3126 3124 3120 3118 3119 3117 3109 3105 3102 3097 3096 3097 3096 3096 3094 3093 3092 3089 3087 3084 3080 3078 3076 3072 3069 3065 3061 3057 3053 3049 3044 3039 3035 3031 3027 3022 3018 3014 3010 3006 3002 2997 2993 2989 2985 2981 2977 2973 2969 2964 2960 2956 2953 2949 2946 2942 2938 2935 2931 2928 2926 2924 2921 2919 2917 2916 2915 2913 2911 2908
3142 3139 3138 3139 3137 3136 3135 3133 3133 3132 3130 3129 3127 3125 3125 3124 3123 3122 3120 3116 3116 3112 3103 3100 3100 3096 3095 3095 3094 3094 3093 3091 3089 3086 3083 3081 3078 3076 3072 3068 3065 3061 3057 3053 3048 3044 3039 3034 3030 3026 3022 3017 3013 3009 3005 3001 2997 2993 2989 2985 2980 2976 2972 2968 2964 2959 2955 2951 2947 2943 2939 2936 2932 2928 2925 2921 2919 2916 2914 2912 2910 2909 2907 2906 2904 2902
3141 3138 3136 3136 3135 3134 3133 3131 3130 3129 3128 3126 3125 3123 3123 3123 3121 3121 3120 3115 3113 3108 3100 3096 3096 3094 3093 3093 3092 3092 3091 3089 3086 3082 3080 3078 3075 3071 3067 3064 3061 3057 3052 3048 3043 3038 3034 3029 3025 3020 3016 3012 3008 3004 2999 2995 2991 2987 2984 2980 2976 2972 2968 2964 2959 2955 2950 2946 2941 2937 2933 2929 2925 2921 2918 2914 2911 2908 2906 2905 2903 2901 2900 2899 2897 2895
3140 3138 3134 3133 3134 3132 3131 3130 3128 3126 3125 3124 3122 3121 3121 3121 3119 3119 3118 3115 3112 3107 3099 3094 3093 3091 3089 3090 3091 3091 3088 3086 3082 3078 3076 3074 3071 3067 3063 3059 3056 3052 3047 3042 3037 3033 3028 3024 3019 3015 3010 3006 3002 2998 2994 2990 2985 2981 2977 2973 2970 2966 2962 2958 2954 2949 2945 2940 2936 2931 2927 2922 2918 2914 2911 2908 2904 2901 2899 2897 2895 2894 2893 2891 2890 2888
3138 3137 3133 3131 3131 3130 3128 3127 3126 3124 3122 3121 3120 3119 3119 3118 3117 3116 3114 3112 3111 3107 3101 3096 3091 3088 3087 3088 3089 3088 3085 3083 3079 3075 3073 3070 3067 3063 3060 3056 3051 3047 3041 3036 3032 3027 3023 3018 3014 3010 3005 3001 2997 2993 2989 2984 2980 2975 2971 2966 2962 2958 2954 2951 2947 2943 2938 2934 2929 2924 2920 2916 2911 2908 2904 2900 2897 2894 2892 2890 2888 2886 2885 2884 2883 2881
3136 3135 3132 3129 3129 3127 3126 3125 3123 3122 3120 3119 3118 3117 3117 3116 3115 3114 3110 3107 3108 3106 3101 3097 3090 3082 3084 3087 3086 3085 3083 3080 3076 3073 3069 3066 3064 3060 3056 3051 3047 3041 3036 3031 3027 3022 3018 3013 3008 3004 3000 2996 2992 2988 2983 2979 2974 2969 2964 2959 2955 2951 2947 2943 2939 2935 2931 2927 2922 2918 2914 2909 2905 2901 2897 2893 2890 2887 2885 2882 2880 2879 2877 2876 2876 2874
3134 3132 3129 3127 3126 3125 3123 3122 3121 3119 3118 3117 3116 3115 3115 3114 3113 3113 3109 3105 3106 3103 3100 3100 3092 3080 3080 3083 3083 3082 3080 3077 3073 3070 3066 3062 3060 3055 3050 3045 3041 3036 3031 3026 3021 3017 3012 3008 3003 2999 2994 2990 2985 2981 2976 2972 2967 2962 2957 2953 2948 2944 2940 2936 2932 2928 2924 2920 2916 2911 2907 2902 2898 2893 2889 2886 2883 2880 2877 2875 2873 2871 2870 2869 2868 2867
3133 3130 3127 3124 3123 3122 3120 3119 3118 3117 3116 3115 3114 3113 3113 3111 3110 3110 3108 3104 3103 3100 3099 3099 3090 3078 3078 3080 3081 3080 3077 3072 3069 3066 3062 3058 3054 3049 3044 3039 3035 3030 3026 3021 3015 3011 3006 3002 2998 2993 2988 2984 2979 2974 2969 2964 2959 2955 2951 2947 2942 2937 2933 2929 2925 2920 2916 2912 2908 2904 2899 2895 2890 2886 2882 2878 2875 2872 2870 2867 2865 2864 2862 2862 2861 2861
3131 3129 3126 3124 3121 3118 3117 3116 3115 3114 3113 3112 3111 3110 3110 3109 3108 3107 3105 3104 3101 3096 3097 3096 3084 3077 3079 3079 3078 3077 3072 3067 3065 3062 3058 3053 3047 3043 3038 3033 3029 3024 3019 3015 3010 3005 3001 2996 2991 2986 2981 2977 2973 2969 2964 2960 2954 2949 2944 2940 2936 2931 2927 2922 2917 2912 2908 2904 2899 2895 2891 2886 2881 2877 2873 2870 2867 2865 2862 2860 2858 2856 2855 2854 2854 2854
3129 3126 3125 3124 3121 3118 3117 3116 3115 3113 3111 3109 3108 3108 3107 3106 3105 3104 3103 3102 3098 3092 3093 3091 3081 3075 3078 3077 3074 3072 3067 3062 3059 3056 3052 3048 3043 3038 3033 3028 3024 3019 3014 3009 3004 2999 2995 2990 2985 2980 2975 2970 2966 2961 2957 2953 2949 2943 2938 2934 2929 2924 2919 2915 2910 2905 2900 2895 2890 2885 2882 2877 2872 2868 2865 2862 2859 2856 2854 2852 2850 2849 2848 2847 2847 2847
3126 3123 3122 3122 3119 3117 3116 3115 3114 3113 3110 3108 3107 3106 3105 3103 3102 3102 3100 3098 3095 3090 3086 3084 3080 3074 3071 3072 3071 3067 3063 3058 3053 3050 3046 3042 3038 3033 3029 3024 3019 3014 3010 3005 3000 2995 2990 2985 2980 2975 2970 2964 2959 2954 2949 2945 2941 2936 2931 2927 2922 2918 2912 2908 2903 2899 2894 2888 2882 2877 2872 2868 2863 2859 2855 2853 2850 2847 2845 2844 2842 2841 2840 2840 2841 2840
3123 3120 3119 3118 3115 3114 3114 3113 3112 3110 3108 3106 3105 3104 3102 3100 3098 3098 3097 3094 3093 3090 3081 3078 3080 3075 3068 3067 3067 3063 3058 3053 3049 3045 3041 3036 3032 3028 3023 3019 3014 3010 3005 3001 2996 2991 2985 2980 2975 2971 2965 2960 2954 2949 2944 2939 2934 2929 2923 2918 2913 2909 2905 2899 2894 2890 2885 2879 2874 2869 2863 2858 2854 2850 2846 2844 2841 2839 2837 2835 2834 2834 2833 2833 2833 2833
3121 3118 3116 3115 3112 3111 3111 3110 3108 3106 3104 3103 3103 3101 3098 3097 3096 3095 3094 3092 3091 3088 3081 3076 3076 3072 3067 3065 3062 3058 3054 3050 3045 3041 3038 3033 3028 3023 3018 3013 3008 3004 2999 2995 2990 2985 2980 2975 2970 2965 2961 2956 2950 2945 2940 2934 2927 2921 2914 2908 2904 2900 2896 2891 2885 2879 2874 2869 2865 2860 2854 2850 2845 2842 2838 2835 2833 2831 2828 2827 2826 2826 2826 2826 2827 2827
3119 3116 3114 3113 3110 3108 3108 3107 3105 3103 3102 3101 3099 3097 3096 3095 3094 3093 3092 3091 3088 3085 3080 3076 3071 3067 3065 3062 3057 3054 3052 3047 3043 3039 3034 3029 3024 3018 3013 3008 3003 2999 2994 2989 2985 2980 2975 2970 2965 2960 2955 2950 2945 2939 2933 2927 2921 2915 2908 2902 2897 2893 2888 2883 2876 2870 2865 2860 2856 2851 2847 2842 2838 2834 2831 2828 2825 2823 2821 2819 2819 2819 2819 2820 2820 2820
3117 3114 3112 3111 3108 3105 3105 3104 3102 3101 3100 3098 3096 3095 3094 3093 3092 3091 3089 3088 3085 3081 3078 3074 3068 3064 3062 3058 3054 3051 3048 3044 3040 3035 3029 3024 3019 3013 3009 3004 2999 2994 2989 2985 2980 2975 2970 2965 2960 2955 2950 2945 2939 2933 2927 2920 2915 2910 2904 2897 2892 2887 2882 2876 2869 2863 2858 2853 2849 2844 2840 2836 2832 2828 2824 2821 2818 2816 2814 2812 2812 2812 2812 2813 2814 2814
3115 3112 3111 3110 3107 3104 3104 3103 3101 3099 3097 3096 3094 3093 3092 3090 3089 3088 3087 3085 3082 3077 3073 3070 3066 3061 3058 3054 3049 3047 3044 3040 3036 3030 3024 3019 3015 3011 3006 3001 2996 2990 2985 2981 2976 2971 2966 2960 2955 2949 2944 2938 2933 2928 2922 2915 2909 2904 2898 2892 2887 2881 2876 2870 2864 2857 2852 2847 2843 2839 2835 2831 2827 2824 2819 2816 2812 2809 2807 2806 2806 2806 2806 2806 2807 2807
3113 3111 3109 3109 3106 3103 3102 3102 3100 3097 3095 3094 3093 3091 3089 3088 3087 3085 3084 3083 3081 3077 3071 3067 3063 3059 3054 3050 3045 3041 3038 3034 3029 3025 3020 3015 3011 3007 3003 2997 2992 2987 2983 2978 2973 2967 2961 2955 2950 2944 2939 2934 2928 2923 2918 2911 2905 2898 2892 2886 2881 2875 2870 2864 2858 2851 2846 2841 2837 2833 2829 2825 2822 2818 2814 2810 2807 2804 2802 2801 2800 2800 2800 2801 2801 2801
3111 3110 3108 3108 3105 3101 3100 3099 3097 3095 3093 3092 3091 3089 3087 3086 3084 3082 3081 3080 3079 3075 3070 3066 3061 3056 3052 3048 3043 3038 3032 3028 3025 3021 3017 3013 3008 3003 2998 2993 2989 2984 2979 2973 2967 2961 2955 2949 2944 2939 2934 2929 2924 2919 2913 2906 2900 2893 2887 2881 2876 2870 2864 2858 2852 2846 2839 2835 2831 2827 2824 2820 2817 2813 2810 2805 2802 2798 2797 2796 2795 2795 2795 2795 2795 2795
3110 3109 3107 3106 3103 3099 3097 3097 3095 3093 3092 3091 3089 3086 3085 3084 3082 3079 3078 3078 3076 3071 3066 3062 3058 3053 3050 3047 3042 3036 3029 3024 3021 3018 3015 3011 3006 3000 2994 2990 2985 2979 2973 2966 2960 2955 2950 2944 2939 2933 2928 2923 2918 2912 2906 2899 2893 2886 2881 2876 2870 2864 2858 2852 2846 2840 2834 2829 2825 2821 2818 2815 2811 2808 2804 2800 2797 2794 2792 2791 2791 2790 2790 2790 2790 2790
3109 3107 3105 3103 3101 3098 3097 3097 3096 3092 3090 3089 3086 3084 3083 3082 3080 3076 3072 3072 3072 3067 3061 3057 3054 3051 3048 3043 3038 3031 3025 3019 3016 3015 3012 3008 3003 2998 2992 2986 2981 2975 2968 2962 2956 2950 2945 2940 2934 2927 2922 2916 2911 2905 2898 2892 2886 2880 2874 2870 2864 2858 2852 2846 2840 2834 2828 2823 2819 2815 2812 2808 2805 2801 2798 2795 2792 2789 2787 2786 2786 2786 2785 2785 2785 2784
3107 3106 3104 3102 3100 3098 3097 3096 3094 3091 3088 3087 3085 3083 3082 3080 3079 3075 3070 3067 3066 3062 3057 3054 3051 3047 3043 3037 3031 3026 3020 3013 3009 3009 3009 3004 2999 2995 2990 2984 2978 2972 2965 2959 2953 2947 2941 2935 2929 2923 2916 2910 2905 2899 2893 2887 2881 2874 2868 2863 2858 2851 2846 2840 2834 2828 2822 2817 2813 2810 2806 2802 2798 2794 2791 2789 2786 2784 2782 2780 2781 2781 2781 2780 2780 2779
3106 3104 3103 3102 3100 3098 3097 3095 3092 3089 3087 3086 3084 3083 3081 3079 3078 3076 3069 3064 3061 3058 3055 3052 3047 3041 3036 3030 3025 3020 3014 3007 3002 3001 3001 2997 2993 2989 2984 2979 2973 2967 2961 2954 2947 2941 2935 2929 2923 2917 2911 2906 2901 2895 2889 2882 2875 2869 2863 2857 2851 2845 2839 2833 2827 2822 2817 2812 2807 2804 2800 2796 2792 2788 2785 2783 2781 2779 2776 2775 2775 2776 2776 2775 2775 2775
3104 3103 3102 3101 3099 3098 3097 3096 3093 3090 3087 3085 3083 3081 3080 3078 3076 3072 3067 3061 3057 3055 3052 3048 3042 3036 3031 3027 3022 3016 3012 3006 2999 2994 2992 2989 2986 2983 2978 2972 2967 2962 2956 2950 2943 2935 2929 2923 2918 2913 2908 2902 2896 2890 2884 2877 2871 2864 2858 2851 2845 2839 2833 2827 2821 2816 2811 2806 2802 2798 2794 2790 2786 2782 2779 2777 2775 2773 2771 2770 2770 2770 2771 2771 2770 2770
3103 3102 3101 3100 3099 3098 3097 3095 3094 3091 3087 3084 3082 3080 3078 3076 3073 3069 3064 3057 3052 3051 3048 3044 3039 3034 3029 3025 3020 3016 3012 3007 2998 2992 2989 2985 2982 2978 2974 2968 2962 2956 2949 2944 2937 2931 2925 2919 2914 2908 2902 2896 2890 2884 2878 2871 2865 2858 2852 2845 2839 2833 2827 2821 2815 2810 2805 2801 2796 2791 2787 2784 2780 2776 2774 2772 2770 2768 2766 2765 2765 2765 2766 2766 2766 2766
3102 3101 3101 3100 3099 3097 3096 3095 3092 3090 3087 3084 3081 3079 3075 3072 3069 3067 3063 3055 3049 3045 3043 3040 3036 3031 3027 3023 3019 3015 3010 3006 2999 2992 2988 2984 2979 2974 2969 2964 2958 2952 2945 2938 2931 2926 2921 2916 2910 2903 2896 2890 2884 2878 2872 2865 2859 2852 2846 2839 2833 2827 2821 2816 2810 2805 2799 2794 2790 2786 2781 2778 2774 2771 2768 2766 2764 2763 2761 2760 2760 2760 2761 2761 2761 2761
3102 3101 3100 3099 3098 3096 3095 3093 3090 3088 3085 3083 3080 3077 3073 3070 3067 3063 3059 3054 3048 3043 3039 3036 3033 3028 3024 3020 3016 3011 3005 3001 2996 2990 2985 2980 2975 2969 2964 2958 2951 2946 2940 2934 2928 2922 2916 2911 2905 2898 2892 2886 2879 2873 2867 2860 2854 2847 2840 2834 2828 2822 2816 2810 2805 2799 2793 2788 2784 2780 2775 2772 2768 2765 2763 2761 2759 2757 2756 2755 2755 2756 2756 2757 2757 2757
3102 3101 3100 3099 3097 3096 3095 3092 3090 3087 3083 3080 3077 3073 3070 3068 3066 3060 3054 3049 3045 3041 3036 3032 3029 3025 3021 3015 3010 3005 3000 2995 2991 2986 2980 2976 2971 2964 2958 2952 2945 2939 2934 2929 2923 2918 2912 2906 2900 2894 2887 2881 2875 2868 2862 2856 2849 2842 2835 2829 2823 2817 2811 2805 2799 2793 2787 2782 2777 2774 2770 2766 2763 2760 2758 2756 2754 2752 2751 2751 2751 2751 2752 2752 2753 2753
3101 3101 3100 3099 3098 3096 3094 3093 3091 3088 3083 3079 3076 3071 3067 3066 3062 3056 3050 3044 3040 3037 3033 3029 3025 3021 3017 3011 3005 3001 2996 2991 2986 2981 2975 2970 2965 2959 2953 2947 2941 2935 2930 2925 2919 2913 2907 2901 2895 2889 2883 2876 2870 2864 2857 2850 2843 2837 2831 2824 2818 2812 2806 2799 2793 2787 2781 2776 2771 2768 2764 2761 2758 2756 2753 2751 2749 2748 2747 2746 2747 2747 2748 2748 2749 2750
3101 3101 3100 3099 3098 3096 3094 3091 3089 3085 3081 3078 3075 3070 3065 3062 3058 3053 3048 3042 3037 3034 3030 3025 3020 3016 3012 3007 3002 2996 2992 2986 2981 2975 2970 2965 2959 2954 2948 2943 2937 2930 2925 2920 2915 2909 2903 2896 2890 2884 2879 2873 2866 2859 2852 2845 2838 2832 2826 2820 2814 2807 2801 2795 2788 2782 2777 2771 2766 2762 2759 2756 2754 2752 2749 2747 2745 2744 2743 2742 2743 2743 2744 2745 2746 2746
3102 3101 3101 3099 3097 3095 3092 3090 3086 3082 3078 3074 3071 3066 3062 3058 3053 3049 3044 3040 3036 3032 3027 3022 3016 3012 3008 3003 2998 2992 2987 2981 2975 2970 2965 2960 2955 2950 2944 2938 2933 2926 2921 2915 2910 2904 2899 2893 2887 2881 2875 2869 2862 2855 2848 2841 2834 2827 2821 2816 2810 2803 2797 2790 2784 2778 2773 2767 2762 2758 2754 2751 2749 2748 2746 2744 2742 2740 2739 2739 2739 2740 2741 2742 2742 2743
3102 3101 3099 3097 3094 3091 3089 3086 3082 3077 3073 3069 3065 3062 3058 3054 3050 3045 3041 3036 3032 3027 3022 3018 3013 3009 3004 3000 2994 2987 2982 2976 2970 2965 2961 2956 2950 2945 2939 2933 2928 2922 2916 2910 2905 2900 2894 2889 2883 2876 2870 2864 2857 2850 2844 2837 2830 2823 2817 2811 2805 2798 2792 2786 2780 2774 2769 2763 2758 2754 2750 2747 2745 2744 2742 2740 2738 2736 2736 2735 2736 2737 2738 2738 2739 2740
3100 3098 3096 3093 3091 3087 3084 3080 3076 3071 3069 3066 3062 3058 3053 3049 3045 3041 3036 3032 3027 3022 3017 3013 3009 3004 2998 2994 2989 2983 2977 2972 2966 2960 2956 2951 2946 2940 2934 2928 2923 2918 2913 2907 2901 2895 2889 2884 2878 2871 2865 2858 2852 2845 2839 2832 2825 2819 2812 2806 2800 2793 2787 2781 2775 2770 2765 2760 2755 2751 2747 2744 2742 2740 2738 2736 2735 2733 2733 2733 2733 2734 2735 2736 2736 2737
3099 3096 3093 3089 3085 3082 3079 3075 3070 3065 3063 3062 3059 3054 3050 3044 3039 3034 3031 3026 3021 3016 3012 3008 3004 2998 2992 2987 2983 2977 2972 2967 2962 2956 2951 2946 2941 2935 2930 2925 2919 2914 2909 2904 2897 2890 2884 2878 2873 2867 2860 2853 2847 2840 2833 2827 2820 2814 2807 2801 2794 2788 2781 2775 2770 2765 2761 2756 2751 2747 2744 2741 2738 2736 2735 2733 2731 2730 2730 2730 2730 2731 2732 2733 2734 2735
3096 3093 3089 3085 3081 3077 3075 3071 3067 3061 3057 3055 3053 3049 3045 3040 3035 3030 3026 3021 3016 3011 3007 3002 2998 2993 2988 2982 2977 2972 2966 2962 2957 2952 2946 2941 2936 2930 2925 2921 2916 2911 2905 2900 2894 2887 2881 2874 2868 2862 2855 2849 2842 2835 2828 2822 2815 2809 2803 2796 2789 2783 2777 2770 2765 2761 2756 2752 2748 2744 2740 2737 2735 2733 2731 2729 2728 2727 2727 2727 2728 2729 2730 2731 2732 2733
3093 3090 3087 3083 3079 3075 3072 3070 3066 3062 3056 3052 3049 3046 3041 3037 3031 3026 3022 3017 3012 3007 3002 2996 2991 2987 2983 2978 2973 2968 2963 2958 2953 2948 2943 2937 2932 2926 2921 2916 2911 2906 2901 2895 2889 2884 2878 2872 2865 2858 2851 2844 2837 2830 2824 2817 2811 2804 2798 2792 2786 2779 2773 2767 2761 2756 2752 2747 2743 2740 2737 2734 2731 2729 2727 2726 2725 2724 2725 2725 2726 2727 2728 2729 2730 2731